Flag for Germany Weather past 2 weeks in Husum, Schleswig-Holstein, Germany

Now
43 °F

Scattered clouds.


Feels Like: 32 °F
Forecast: 38 / 44 °F
Wind: 29 mph from Northwest

Location: Schleswig-Jagel

Current Time: Apr 1, 2015 at 5:00:20 PM

Latest Report: Apr 1, 2015 at 4:20 PM


Visibility: N/A

Pressure: 29.74 "Hg

Humidity: 53%

Dew point: 27 °F

Location of HusumLocation

Historic Weather in Husum — Graph

°F

Husum temperature yesterday

Maximum temperature yesterday: 46 °F (at 12:20 PM)
Minimum temperature yesterday: 32 °F (at 5:20 AM)
Average temperature yesterday: 40 °F

Past Weeks' High & Low Weather Summary

 TemperatureHumidityPressure
High57 °F (Mar 18, 1:20 PM)100% (Mar 19, 7:20 AM)30.45 "Hg (Mar 19, 7:20 AM)
Low27 °F (Mar 22, 5:20 AM)26% (Mar 19, 1:20 PM)28.82 "Hg (Mar 31, 8:20 AM)
Average41 °F80%29.84 "Hg
* Reported Mar 17 2:20 PM — Apr 1 3:20 PM, Husum, Weather by CustomWeather, © 2015

Note: Actual official high and low records may vary slightly from our data, if they occured in-between our weather recording intervals... More about our weather records

Advertising

Husum weather history for previous 24 hours

 ConditionsComfort  
Time TempWeatherWind HumidityBarometerVisibility
3:20 PM
Wed, Apr 1
43 °FScattered clouds.28 mph57%29.74 "HgN/A
2:20 PM45 °FSprinkles. Broken clouds.31 mph57%29.71 "Hg2 mi
1:20 PM43 °FScattered showers. Scattered clouds.32 mph66%29.71 "HgN/A
12:20 PM43 °FScattered clouds.29 mph61%29.68 "HgN/A
11:20 AM41 °FPartly sunny.25 mph76%29.65 "HgN/A
10:20 AM37 °FBroken clouds.25 mph81%29.62 "Hg5 mi
9:57 AM37 °FBroken clouds.25 mph81%29.62 "Hg4 mi
9:20 AM37 °FSprinkles. Partly sunny.26 mph87%29.59 "Hg3 mi
8:20 AM37 °FBroken clouds.18 mph87%29.56 "Hg5 mi
7:47 AM39 °FSprinkles. Passing clouds.17 mph81%29.56 "Hg4 mi
7:20 AM39 °FPassing clouds.17 mph81%29.56 "HgN/A
6:20 AM37 °FPassing clouds.12 mph87%29.53 "HgN/A
5:20 AM37 °FPassing clouds.13 mph87%29.53 "HgN/A
4:20 AM39 °FChilly.15 mph87%29.50 "Hg3 mi
3:20 AM37 °FChilly.15 mph93%29.47 "Hg3 mi
2:20 AM39 °FChilly.14 mph87%29.47 "Hg3 mi
1:20 AM37 °FChilly.12 mph87%29.45 "Hg3 mi
12:20 AM39 °FChilly.17 mph81%29.42 "Hg3 mi
11:20 PM
Tue, Mar 31
37 °FChilly.16 mph87%29.42 "Hg3 mi
10:20 PM39 °FChilly.16 mph87%29.39 "Hg3 mi
9:20 PM37 °FChilly.16 mph93%29.39 "Hg3 mi
8:20 PM39 °FChilly.25 mph87%29.36 "Hg2 mi
7:20 PM39 °FChilly.24 mph87%29.30 "Hg2 mi
6:20 PM39 °FChilly.30 mph87%29.21 "Hg3 mi
5:20 PM41 °FQuite cool.40 mph81%29.12 "Hg2 mi
Weather by CustomWeather, © 2015

See weather overviewHow to use our weather pages